This demonstration page uses our WeatherBlox Daily Observations layout. Learn more.

Left ArrowRight Arrow

53.62937, 11.41316

Hourly Observations for May 15, 2021

Temp ( °F °C ) Dew Point ( °F °C ) Humidity (%) Winds ( mph kmh ) Pressure ( in mb ) Visibility ( mi km ) Precip ( " mm )
7:20 am 07:20 Mostly Cloudy 46 8 43 6 87 87 SSW 6 9 29.71 1006 6 9 N/A
7:50 am 07:50 Mostly Cloudy 46 8 43 6 87 87 SW 7 11 29.71 1006 30 48 N/A
8:20 am 08:20 Mostly Cloudy 48 9 43 6 82 82 SW 10 17 29.71 1006 30 48 N/A
8:50 am 08:50 Mostly Cloudy 48 9 43 6 82 82 SSW 10 17 29.71 1006 30 48 N/A
9:20 am 09:20 Mostly Cloudy 48 9 43 6 82 82 SW 8 13 29.71 1006 30 48 N/A
9:50 am 09:50 Mostly Cloudy 50 10 43 6 76 76 SW 7 11 29.71 1006 30 48 N/A
10:20 am 10:20 Mostly Cloudy 50 10 43 6 76 76 SW 7 11 29.71 1006 30 48 N/A
10:50 am 10:50 Mostly Cloudy 52 11 45 7 77 77 SSW 8 13 29.71 1006 30 48 N/A
11:20 am 11:20 Mostly Cloudy 52 11 45 7 77 77 SSW 7 11 29.71 1006 30 48 N/A
11:50 am 11:50 Mostly Cloudy 54 12 45 7 72 72 SSW 6 9 29.71 1006 6 9 N/A
12:20 pm 12:20 Mostly Cloudy 54 12 45 7 72 72 SSW 5 7 29.68 1005 6 9 N/A
12:50 pm 12:50 Mostly Cloudy 57 14 46 8 67 67 VRB 3 6 29.68 1005 6 9 N/A
1:20 pm 13:20 Mostly Cloudy 57 14 45 7 63 63 SE 6 9 29.68 1005 30 48 N/A
1:50 pm 13:50 Mostly Cloudy 57 14 46 8 67 67 ESE 5 7 29.65 1004 30 48 N/A
2:20 pm 14:20 Partly Cloudy 59 15 46 8 63 63 VRB 3 6 29.65 1004 30 48 N/A
2:50 pm 14:50 Partly Cloudy 59 15 46 8 63 63 VRB 3 6 29.65 1004 30 48 N/A
3:20 pm 15:20 Partly Cloudy 59 15 46 8 63 63 ESE 5 7 29.62 1003 30 48 N/A
3:50 pm 15:50 Partly Cloudy with Showers Nearby 59 15 46 8 63 63 SE 6 9 29.62 1003 30 48 N/A
4:20 pm 16:20 Partly Cloudy with Nearby Thunderstorms 59 15 46 8 63 63 VRB 3 6 29.62 1003 30 48 N/A
4:50 pm 16:50 Mostly Cloudy with Thunderstorms 50 10 46 8 88 88 S 16 26 29.65 1004 4 6 N/A
5:20 pm 17:20 Partly Cloudy with Light Showers 50 10 48 9 94 94 SW 7 11 29.62 1003 30 48 N/A
5:50 pm 17:50 Partly Cloudy with Showers Nearby 50 10 48 9 94 94 VRB 2 4 29.62 1003 30 48 N/A
6:20 pm 18:20 Mostly Sunny 54 12 48 9 82 82 VRB 2 4 29.62 1003 7 11 N/A
6:50 pm 18:50 Mostly Sunny 54 12 48 9 82 82 VRB 2 4 29.59 1002 7 11 N/A
7:20 pm 19:20 Mostly Sunny 52 11 48 9 88 88 NNE 6 9 29.59 1002 7 11 N/A
7:50 pm 19:50 Mostly Sunny 52 11 48 9 88 88 NNE 5 7 29.59 1002 7 11 N/A
8:20 pm 20:20 Mostly Cloudy 52 11 48 9 88 88 NNE 3 6 29.59 1002 30 48 N/A
8:50 pm 20:50 Partly Cloudy 50 10 50 10 100 100 VRB 1 2 29.59 1002 30 48 N/A

Powered by AerisWeather